This is the latest recevied weather packets stored in our database for station/object YO8RBY-1. If no packets are shown the sender has not sent any weather packets the latest 10 day(s).
| Time | Temp. | Humidity | Pressure | Rain* | Wind** | Luminosity | Snow |
|---|---|---|---|---|---|---|---|
| 1777844683 | 25.56° C | 30% | 974 hPa | - | - | 0 W/m² | - |
| 1777842859 | 26.11° C | 30% | 974 hPa | - | - | 0 W/m² | - |
| 1777841035 | 26.11° C | 30% | 974 hPa | - | - | 0 W/m² | - |
| 1777839211 | 26.11° C | 30% | 975 hPa | - | - | 0 W/m² | - |
| 1777837387 | 26.67° C | 29% | 975 hPa | - | - | 0 W/m² | - |
| 1777835563 | 27.22° C | 29% | 975 hPa | - | - | 0 W/m² | - |
| 1777833740 | 27.22° C | 29% | 975 hPa | - | - | 0 W/m² | - |
| 1777833697 | 27.22° C | 29% | 975 hPa | - | - | 0 W/m² | - |
| 1777831873 | 27.78° C | 29% | 975 hPa | - | - | 0 W/m² | - |
| 1777830049 | 27.78° C | 28% | 975 hPa | - | - | 0 W/m² | - |
| 1777828225 | 27.22° C | 28% | 975 hPa | - | - | 0 W/m² | - |
| 1777826401 | 27.22° C | 28% | 975 hPa | - | - | 0 W/m² | - |
| 1777824577 | 27.22° C | 29% | 975 hPa | - | - | 0 W/m² | - |
| 1777822753 | 26.67° C | 29% | 975 hPa | - | - | 0 W/m² | - |
| 1777820929 | 26.67° C | 29% | 976 hPa | - | - | 0 W/m² | - |
| 1777819105 | 26.67° C | 28% | 976 hPa | - | - | 0 W/m² | - |
| 1777817281 | 26.67° C | 27% | 976 hPa | - | - | 0 W/m² | - |
| 1777815458 | 26.67° C | 27% | 976 hPa | - | - | 0 W/m² | - |
| 1777813634 | 26.67° C | 25% | 977 hPa | - | - | 0 W/m² | - |
| 1777811810 | 27.22° C | 29% | 977 hPa | - | - | 0 W/m² | - |
| 1777809986 | 27.22° C | 28% | 977 hPa | - | - | 0 W/m² | - |
| 1777808162 | 27.22° C | 28% | 978 hPa | - | - | 0 W/m² | - |
| 1777806338 | 27.22° C | 28% | 978 hPa | - | - | 0 W/m² | - |
| 1777804514 | 26.67° C | 27% | 978 hPa | - | - | 0 W/m² | - |
| 1777802690 | 26.67° C | 29% | 979 hPa | - | - | 0 W/m² | - |
* Rain since midnight (hover to see other rain measurements)
** Current wind speed in m/s (hover to see current wind gust speed)